Cecil Field, FL

5:29 PM EDT on June 23, 2017 (GMT -0400)
Cecil

Weather History for KVQQ - May, 2014

Change the Weather History Date:

Thursday, May 1, 2014

  Actual Average (KNIP) Record (KNIP)
Temperature  
Mean Temperature 73 °F -  
Max Temperature 82 °F 79 °F 93 °F (2002)
Min Temperature 64 °F 63 °F 51 °F (1999)
Cooling Degree Days 8    
Growing Degree Days 23 (Base 50)    
Moisture  
Dew Point 68 °F    
Average Humidity 93    
Maximum Humidity 100    
Minimum Humidity 70    
Precipitation  
Precipitation 0.00 in - - ()
Sea Level Pressure  
Sea Level Pressure 29.98 in    
Wind  
Wind Speed 1 mph (West)    
Max Wind Speed 12 mph    
Max Gust Speed -    
Visibility 9 miles    
Events Rain    
Averages and records for this station are not official NWS values.
T = Trace of Precipitation, MM = Missing Value Source: NWS Daily Summary

Daily Weather History Graph

Daily Weather History Graph

Search for Another Location

Airport or City:

Trip Planner

Search our weather history database for the weather conditions in past years. The results will help you decide how hot, cold, wet, or windy it might be!

Date:

Astronomy

May. 01, 2014 Rise Set
Actual Time 6:44 AM EDT 8:05 PM EDT
Civil Twilight 6:18 AM EDT 8:30 PM EDT
Nautical Twilight 5:48 AM EDT 9:01 PM EDT
Astronomical Twilight 5:17 AM EDT 9:32 PM EDT
Moon 8:34 AM EDT (5/1) 10:32 PM EDT (5/1)
Length of Visible Light 14h 11m
Length of Day
13h 20m
Waxing Crescent, 6% of the Moon is Illuminated
May 1
Waxing Crescent
May 6
First Quarter
May 14
Full
May 21
Last Quarter
May 28
New

Hourly Weather History & Observations

Time (EDT) Temp. Heat Index Dew Point Humidity Pressure Visibility Wind Dir Wind Speed Gust Speed Precip Events Conditions
12:15 AM 68.0 °F - 68.0 °F 100% 30.00 in 10.0 mi Calm Calm - N/A   Clear
12:35 AM 68.0 °F - 68.0 °F 100% 30.01 in 10.0 mi Calm Calm - N/A   Clear
1:15 AM 68.0 °F - 68.0 °F 100% 30.02 in 10.0 mi Calm Calm - N/A   Clear
1:35 AM 68.0 °F - 66.2 °F 94% 30.01 in 10.0 mi Calm Calm - N/A   Clear
1:55 AM 68.0 °F - 66.2 °F 94% 30.01 in 10.0 mi Calm Calm - N/A   Clear
2:15 AM 68.0 °F - 66.2 °F 94% 30.00 in 10.0 mi Calm Calm - N/A   Clear
2:35 AM 68.0 °F - 66.2 °F 94% 30.00 in 10.0 mi Calm Calm - N/A   Clear
2:55 AM 68.0 °F - 66.2 °F 94% 29.98 in 10.0 mi Calm Calm - N/A   Clear
3:15 AM 68.0 °F - 66.2 °F 94% 29.97 in 10.0 mi Calm Calm - N/A   Clear
3:35 AM 68.0 °F - 66.2 °F 94% 29.98 in 10.0 mi Calm Calm - N/A   Clear
3:55 AM 66.2 °F - 66.2 °F 100% 29.97 in 9.0 mi Calm Calm - N/A   Clear
4:15 AM 66.2 °F - 66.2 °F 100% 29.97 in 9.0 mi Calm Calm - N/A   Clear
4:35 AM 66.2 °F - 66.2 °F 100% 29.97 in 5.0 mi Calm Calm - N/A   Clear
4:55 AM 66.2 °F - 66.2 °F 100% 29.97 in 7.0 mi Calm Calm - N/A   Clear
5:15 AM 66.2 °F - 66.2 °F 100% 29.97 in 9.0 mi SE 3.5 mph - N/A   Clear
5:35 AM 66.2 °F - 66.2 °F 100% 29.97 in 10.0 mi Calm Calm - N/A   Clear
6:15 AM 66.2 °F - 66.2 °F 100% 29.97 in 10.0 mi Calm Calm - N/A   Clear
6:35 AM 64.4 °F - 64.4 °F 100% 29.98 in 7.0 mi Calm Calm - N/A   Clear
6:50 AM 64.4 °F - 64.4 °F 100% 29.98 in 7.0 mi Calm Calm - N/A   Clear
7:50 AM 68.0 °F - 66.2 °F 94% 30.01 in 10.0 mi Variable 3.5 mph - N/A   Clear
8:50 AM 71.6 °F - 68.0 °F 88% 30.01 in 10.0 mi Calm Calm - N/A   Scattered Clouds
9:50 AM 75.2 °F - 68.0 °F 78% 30.01 in 10.0 mi Calm Calm - N/A   Partly Cloudy
10:50 AM 80.6 °F 83.9 °F 69.8 °F 70% 30.01 in 10.0 mi WSW 6.9 mph - N/A   Mostly Cloudy
11:50 AM 82.4 °F 87.2 °F 71.6 °F 70% 30.02 in 10.0 mi West 6.9 mph - N/A   Mostly Cloudy
12:50 PM 80.6 °F 84.6 °F 71.6 °F 74% 30.00 in 10.0 mi SW 8.1 mph - N/A   Mostly Cloudy
1:50 PM 75.2 °F - 73.4 °F 94% 30.00 in 1.5 mi WSW 11.5 mph - N/A   Mostly Cloudy
2:50 PM 75.2 °F - 73.4 °F 94% 29.99 in 5.0 mi WNW 8.1 mph - N/A Rain Light Rain
3:50 PM 69.8 °F - 68.0 °F 94% 29.98 in 3.0 mi WNW 6.9 mph - N/A Rain Light Rain
4:50 PM 73.4 °F - 68.0 °F 83% 29.97 in 7.0 mi WNW 6.9 mph - N/A   Mostly Cloudy
5:50 PM 77.0 °F - 68.0 °F 74% 29.97 in 10.0 mi West 4.6 mph - N/A   Clear
6:50 PM 75.2 °F - 68.0 °F 78% 29.94 in 10.0 mi Calm Calm - N/A   Clear
7:50 PM 71.6 °F - 68.0 °F 88% 29.95 in 10.0 mi Calm Calm - N/A   Clear
8:15 PM 71.6 °F - 68.0 °F 88% 29.96 in 10.0 mi Calm Calm - N/A   Scattered Clouds
8:35 PM 71.6 °F - 68.0 °F 88% 29.95 in 9.0 mi Calm Calm - N/A   Scattered Clouds
8:55 PM 71.6 °F - 68.0 °F 88% 29.96 in 10.0 mi Calm Calm - N/A   Partly Cloudy
9:15 PM 69.8 °F - 68.0 °F 94% 29.97 in 10.0 mi Calm Calm - N/A   Partly Cloudy
9:35 PM 69.8 °F - 68.0 °F 94% 29.96 in 10.0 mi Calm Calm - N/A   Clear
9:55 PM 69.8 °F - 68.0 °F 94% 29.97 in 10.0 mi Calm Calm - N/A   Clear
10:15 PM 69.8 °F - 68.0 °F 94% 29.98 in 10.0 mi Calm Calm - N/A   Partly Cloudy
10:35 PM 68.0 °F - 68.0 °F 100% 29.98 in 10.0 mi Calm Calm - N/A   Partly Cloudy
10:55 PM 68.0 °F - 68.0 °F 100% 29.97 in 9.0 mi Calm Calm - N/A   Clear
11:15 PM 68.0 °F - 68.0 °F 100% 29.98 in 10.0 mi Calm Calm - N/A   Scattered Clouds
11:35 PM 68.0 °F - 68.0 °F 100% 29.98 in 10.0 mi Calm Calm - N/A   Partly Cloudy
11:55 PM 68.0 °F - 68.0 °F 100% 29.97 in 10.0 mi Calm Calm - N/A   Mostly Cloudy